This is the latest recevied weather packets stored in our database for station/object KA7EII-13. If no packets are shown the sender has not sent any weather packets the latest 10 day(s).
| Time | Temp. | Humidity | Pressure | Rain* | Wind** | Luminosity | Snow |
|---|---|---|---|---|---|---|---|
| 1778037371 | 8.89° C | 39% | 1101.9 hPa | 0 mm | - | 0 W/m² | - |
| 1778037068 | 8.89° C | 39% | 1101.6 hPa | 0 mm | - | 0 W/m² | - |
| 1778036767 | 8.89° C | 39% | 1101.6 hPa | 0 mm | - | 0 W/m² | - |
| 1778036464 | 9.44° C | 39% | 1101.4 hPa | 0 mm | - | 0 W/m² | - |
| 1778036161 | 9.44° C | 38% | 1101.3 hPa | 0 mm | - | 0 W/m² | - |
| 1778035856 | 10° C | 38% | 1100.9 hPa | 0 mm | - | 0 W/m² | - |
| 1778035554 | 10° C | 38% | 1100.7 hPa | 0 mm | - | 0 W/m² | - |
| 1778035250 | 10° C | 37% | 1100.7 hPa | 0 mm | - | 0 W/m² | - |
| 1778034946 | 10° C | 38% | 1100.5 hPa | 0 mm | - | 0 W/m² | - |
| 1778034644 | 10.56° C | 38% | 1100.4 hPa | 0 mm | - | 3 W/m² | - |
| 1778034341 | 10.56° C | 38% | 1100.4 hPa | 0 mm | - | 4 W/m² | - |
| 1778034039 | 10.56° C | 37% | 1100.7 hPa | 0 mm | - | 6 W/m² | - |
| 1778033735 | 11.11° C | 37% | 1100.3 hPa | 0 mm | - | 9 W/m² | - |
| 1778033433 | 11.11° C | 37% | 1099.9 hPa | 0 mm | - | 11 W/m² | - |
| 1778033130 | 11.67° C | 37% | 1099.8 hPa | 0 mm | - | 16 W/m² | - |
| 1778032828 | 11.67° C | 36% | 1099.6 hPa | 0 mm | - | 19 W/m² | - |
| 1778032526 | 11.67° C | 35% | 1099.4 hPa | 0 mm | - | 23 W/m² | - |
| 1778032222 | 12.22° C | 35% | 1099.7 hPa | 0 mm | - | 36 W/m² | - |
| 1778031919 | 12.78° C | 34% | 1099.4 hPa | 0 mm | - | 33 W/m² | - |
| 1778031615 | 12.78° C | 34% | 1099.2 hPa | 0 mm | - | 47 W/m² | - |
| 1778031313 | 12.78° C | 35% | 1099 hPa | 0 mm | - | 53 W/m² | - |
| 1778031010 | 13.33° C | 34% | 1099.1 hPa | 0 mm | - | 46 W/m² | - |
| 1778030705 | 13.33° C | 34% | 1099.1 hPa | 0 mm | - | 74 W/m² | - |
| 1778030403 | 13.33° C | 34% | 1098.6 hPa | 0 mm | - | 53 W/m² | - |
| 1778030100 | 13.33° C | 34% | 1098.6 hPa | 0 mm | - | 32 W/m² | - |
* Rain latest hour (hover to see other rain measurements)
** Current wind speed in m/s (hover to see current wind gust speed)